KD8LPB Weather Reports


Display with metric or nautical units.
time (UTC)temp
F
wind
direction
speed
MPH
gust
MPH
rain 1hr
in
rain 24hr
in
rain mn
in
humidity
%
barometer
mb
20260508013037 33 0 0.0 1.0 0.00 0.00 0.00 90 1008.8
20260508011535 34 0 0.0 0.0 0.00 0.00 0.00 87 1008.7
20260508010042 35 0 0.0 0.0 0.00 0.00 0.00 83 1008.8
20260508004540 37 0 0.0 0.0 0.00 0.00 0.00 81 1009.0
20260508003036 38 0 0.0 0.0 0.00 0.00 0.00 80 1009.1
20260508001537 38 0 0.0 0.0 0.00 0.00 0.00 80 1009.0
20260508000042 40 312 0.0 1.0 0.00 0.00 0.00 76 1009.0
20260507234540 44 0 0.0 3.0 0.00 0.00 0.00 70 1009.1
20260507233040 43 0 0.0 2.0 0.00 0.00 0.00 64 1009.0
20260507231544 42 0 0.0 1.0 0.00 0.00 0.00 75 1009.2
20260507230122 43 0 0.0 1.0 0.00 0.00 0.00 75 1009.1
20260507224554 41 342 0.0 1.0 0.00 0.00 0.00 78 1009.2
20260507223044 41 316 0.0 1.0 0.00 0.00 0.00 77 1009.1
20260507221540 41 323 0.0 1.0 0.00 0.00 0.00 78 1009.0
20260507220038 41 0 0.0 2.0 0.00 0.00 0.00 78 1009.1
20260507214541 40 0 0.0 2.0 0.00 0.00 0.00 78 1009.1
20260507213047 40 324 1.0 3.0 0.00 0.00 0.00 80 1009.0
20260507211539 40 313 1.0 3.0 0.00 0.00 0.00 79 1009.1
20260507210106 42 323 1.0 2.0 0.00 0.00 0.00 76 1009.1
20260507204537 42 313 1.0 2.0 0.00 0.00 0.00 75 1009.2
20260507203035 42 307 0.0 2.0 0.00 0.00 0.00 76 1009.1
20260507201539 41 315 1.0 2.0 0.00 0.00 0.00 75 1009.2
20260507200052 42 238 0.0 3.0 0.00 0.00 0.00 74 1009.4
20260507194537 42 309 0.0 2.0 0.00 0.00 0.00 76 1009.5
20260507193101 42 317 0.0 3.0 0.00 0.00 0.00 76 1009.6
20260507191534 41 326 1.0 2.0 0.00 0.00 0.00 77 1009.6
20260507190041 41 318 1.0 3.0 0.00 0.00 0.00 73 1009.6
20260507184539 42 335 1.0 2.0 0.00 0.00 0.00 69 1009.7
20260507183040 43 290 0.0 1.0 0.00 0.00 0.00 70 1009.7
20260507181538 42 0 0.0 2.0 0.00 0.00 0.00 71 1009.7
20260507180033 41 328 1.0 3.0 0.00 0.00 0.00 74 1009.8
20260507174541 42 315 1.0 3.0 0.00 0.00 0.00 73 1009.7
20260507173045 42 331 1.0 2.0 0.00 0.00 0.00 72 1009.6
20260507171539 43 326 0.0 1.0 0.00 0.00 0.00 75 1009.8
20260507170040 41 324 0.0 1.0 0.00 0.00 0.00 75 1009.8
20260507164538 40 312 1.0 2.0 0.00 0.00 0.00 76 1010.0
20260507163041 40 311 1.0 3.0 0.00 0.00 0.00 76 1010.3
20260507161544 41 286 0.0 2.0 0.00 0.00 0.00 76 1010.3
20260507160056 41 293 0.0 1.0 0.00 0.00 0.00 77 1010.4
20260507154538 40 0 0.0 1.0 0.00 0.00 0.00 79 1010.4
20260507153038 40 319 0.0 2.0 0.00 0.00 0.00 78 1010.4
20260507151536 40 121 0.0 4.0 0.00 0.00 0.00 75 1010.3
20260507150035 40 114 0.0 7.0 0.00 0.00 0.00 76 1010.4
20260507144549 40 0 0.0 5.0 0.00 0.00 0.00 76 1010.5
20260507143038 40 266 1.0 5.0 0.00 0.00 0.00 77 1010.4
20260507141540 40 328 1.0 5.0 0.00 0.00 0.00 75 1010.4
20260507140037 40 231 0.0 5.0 0.00 0.00 0.00 78 1010.3
20260507134536 39 281 0.0 5.0 0.00 0.00 0.00 79 1010.3
20260507133043 39 258 0.0 5.0 0.00 0.00 0.00 78 1010.3
20260507131534 38 0 0.0 5.0 0.00 0.00 0.00 79 1010.3
20260507130042 38 274 0.0 3.0 0.00 0.00 0.00 80 1010.2
20260507124538 37 269 1.0 3.0 0.00 0.00 0.00 80 1010.2
20260507123042 36 146 0.0 3.0 0.00 0.00 0.00 80 1010.2
20260507121538 36 207 0.0 3.0 0.00 0.00 0.00 83 1010.1
20260507120040 35 0 0.0 2.0 0.00 0.00 0.00 86 1010.0
20260507114543 34 0 0.0 1.0 0.00 0.00 0.00 87 1009.8
20260507113039 34 214 0.0 2.0 0.00 0.00 0.00 88 1009.8
20260507111548 33 194 0.0 2.0 0.00 0.00 0.00 90 1009.8
20260507110036 33 0 0.0 1.0 0.00 0.00 0.00 91 1009.7
20260507104536 32 0 0.0 1.0 0.00 0.00 0.00 92 1009.6
20260507103041 32 0 0.0 2.0 0.00 0.00 0.00 93 1009.7
20260507101538 32 0 0.0 1.0 0.00 0.00 0.00 94 1009.6
20260507100037 32 0 0.0 1.0 0.00 0.00 0.00 95 1009.7
20260507094541 32 158 0.0 1.0 0.00 0.00 0.00 96 1009.8
20260507093043 32 160 0.0 0.0 0.00 0.00 0.00 96 1009.8
20260507091538 32 165 0.0 0.0 0.00 0.00 0.00 96 1010.0
20260507090031 32 0 0.0 0.0 0.00 0.00 0.00 96 1010.1
20260507084541 32 0 0.0 1.0 0.00 0.00 0.00 96 1010.1
20260507083039 32 0 0.0 0.0 0.00 0.00 0.00 96 1010.2
20260507081538 31 0 0.0 0.0 0.00 0.00 0.00 97 1010.3
20260507080040 31 0 0.0 0.0 0.00 0.00 0.00 96 1010.3
20260507074533 31 0 0.0 1.0 0.00 0.00 0.00 97 1010.6
20260507073036 31 0 0.0 1.0 0.00 0.00 0.00 98 1010.7
20260507071536 31 148 0.0 1.0 0.00 0.00 0.00 98 1010.9
20260507070036 31 202 0.0 1.0 0.00 0.00 0.00 98 1011.0
20260507064546 31 0 0.0 1.0 0.00 0.00 0.00 98 1011.1
20260507063038 30 0 0.0 1.0 0.00 0.00 0.00 98 1011.2
20260507061538 30 0 0.0 1.0 0.00 0.00 0.00 98 1011.2
20260507060037 30 0 0.0 0.0 0.00 0.00 0.00 97 1011.4
20260507054540 31 0 0.0 0.0 0.00 0.00 0.00 97 1011.4
20260507053034 31 0 0.0 2.0 0.00 0.00 0.00 96 1011.5
20260507051541 32 0 0.0 0.0 0.00 0.00 0.00 96 1011.8
20260507050041 32 0 0.0 1.0 0.00 0.00 0.00 95 1011.8
20260507044538 32 0 0.0 0.0 0.00 0.00 0.00 95 1011.9
20260507043035 33 0 0.0 1.0 0.00 0.00 0.00 94 1011.9
20260507041549 33 0 0.0 2.0 0.00 0.00 0.00 92 1012.0
20260507040041 34 0 0.0 2.0 0.00 0.00 0.00 90 1012.1
20260507034538 34 296 0.0 2.0 0.00 0.00 0.00 89 1012.1
20260507033042 34 258 0.0 3.0 0.00 0.00 0.00 89 1012.1
20260507031536 34 0 0.0 2.0 0.00 0.00 0.00 91 1012.1
20260507030037 34 308 1.0 2.0 0.00 0.00 0.00 89 1012.1
20260507024535 34 319 1.0 2.0 0.00 0.00 0.00 87 1012.3
20260507023035 34 282 0.0 2.0 0.00 0.00 0.00 87 1012.2
20260507021531 34 331 1.0 3.0 0.00 0.00 0.00 88 1012.2
20260507020039 35 312 0.0 2.0 0.00 0.00 0.00 85 1012.2
20260507014550 35 0 1.0 3.0 0.00 0.00 0.00 84 1012.2